Location: Dompnac
(44.5644°N, 4.1026°E)
Time: 10:23:35
(UTC+00:00)

ATLAS 2AS CENTAUR R/B - Pass Details

Date: 19 September 2020
Orbit: 939 x 1273 km, 63.7° (Epoch: 27 October)

Event Time Altitude Azimuth Distance (km) Brightness Sun altitude
Rises 20:15:44 0° 202° (SSW) 4,173 5.7 -26.2°
Reaches altitude 10° 20:18:30 10° 199° (SSW) 3,232 5.1 -26.6°
Maximum altitude 20:26:17 64° 120° (ESE) 1,392 2.9 -27.8°
Drops below altitude 10° 20:34:05 10° 42° (NE) 3,242 5.1 -29.0°
Sets 20:36:52 0° 39° (NE) 4,187 5.8 -29.4°
